OpenBCM V1.07b12 (Linux)

Packet Radio Mailbox

DB0FHN

[JN59NK Nuernberg]

 Login: GUEST





  
UA9FBV > KEPS     04.05.03 20:40l 108 Lines 2839 Bytes #999 (0) @ AMSAT
BID : ORB03121.M
Read: DB0FHN GUEST
Subj: Orbital Elements  03121.MISC
Path: DB0FHN<DB0ZWI<DB0HDF<DB0ERF<DB0FBB<DB0GOS<ON0AR<WB0TAX<IK1ZNW<RZ6HXA<
      UA9FBV
Sent: 030502/0522Z @:UA9FBV.PRM.RUS.AS #:34358 [Perm] GATEWAY $:ORB03121.M
From: UA9FBV@UA9FBV.PRM.RUS.AS
To  : KEPS@AMSAT

HR AMSAT ORBITAL ELEMENTS FOR MANNED AND MISCELLANEOUS SATELLITES
FROM WA5QGD FORT WORTH,TX May 1, 2003
SEND SUBSCRIBE/UNSUBSCRIBE TO majordomo@amsat.org ONLY
BID: ORB03121.M
TO ALL RADIO AMATEURS BT

Satellite: HUBBLE
Catalog number: 20580
Epoch time:      03120.92007946
Element set:     410
Inclination:       28.4686 deg
RA of node:       294.4327 deg
Eccentricity:    0.0003884
Arg of perigee:   299.6352 deg
Mean anomaly:     186.2635 deg
Mean motion:   14.98126133 rev/day
Decay rate:      4.723e-05 rev/day^2
Epoch rev:           51334
Checksum:              296

Satellite: UARS
Catalog number: 21701
Epoch time:      03122.06337738
Element set:     883
Inclination:       56.9793 deg
RA of node:        98.5920 deg
Eccentricity:    0.0005597
Arg of perigee:    85.2022 deg
Mean anomaly:     274.9616 deg
Mean motion:   15.03015281 rev/day
Decay rate:      1.051e-05 rev/day^2
Epoch rev:           63661
Checksum:              290

Satellite: PO-34
Catalog number: 25520
Epoch time:      03120.35306153
Element set:     665
Inclination:       28.4581 deg
RA of node:       112.2398 deg
Eccentricity:    0.0005668
Arg of perigee:    43.0532 deg
Mean anomaly:     317.0506 deg
Mean motion:   15.14247904 rev/day
Decay rate:      3.028e-05 rev/day^2
Epoch rev:           24832
Checksum:              266

Satellite: ISS
Catalog number: 25544
Epoch time:      03121.84293310
Element set:     951
Inclination:       51.6322 deg
RA of node:       253.0933 deg
Eccentricity:    0.0006576
Arg of perigee:    72.9949 deg
Mean anomaly:      64.2544 deg
Mean motion:   15.58821515 rev/day
Decay rate:     2.8691e-04 rev/day^2
Epoch rev:           25377
Checksum:              303

Satellite: WO-39
Catalog number: 26061
Epoch time:      03121.32166205
Element set:     825
Inclination:      100.1940 deg
RA of node:       191.6590 deg
Eccentricity:    0.0035660
Arg of perigee:    76.8580 deg
Mean anomaly:     283.6577 deg
Mean motion:   14.37915935 rev/day
Decay rate:       7.18e-06 rev/day^2
Epoch rev:           17084
Checksum:              305

Satellite: OO-38
Catalog number: 26063
Epoch time:      03121.20723332
Element set:     774
Inclination:      100.1960 deg
RA of node:       188.7302 deg
Eccentricity:    0.0037438
Arg of perigee:    84.9118 deg
Mean anomaly:     275.6332 deg
Mean motion:   14.35513599 rev/day
Decay rate:       2.00e-06 rev/day^2
Epoch rev:           17066
Checksum:              282

Satellite: NO-45
Catalog number: 26932
Epoch time:      03121.22736217
Element set:     457
Inclination:       67.0523 deg
RA of node:        70.8165 deg
Eccentricity:    0.0003995
Arg of perigee:   271.1541 deg
Mean anomaly:      88.9099 deg
Mean motion:   14.29322906 rev/day
Decay rate:       1.49e-06 rev/day^2
Epoch rev:            8261
Checksum:              303



Read previous mail | Read next mail


 19.09.2025 20:32:51lGo back Go up